Simultaneous Nadir Overpasses (SNOs) Predictions

Prediction of SNOs between GOES-16 and NOAA-20 Satellite Orbit:

Table of predicted SNOs for the next 14.0 days since TLE Epoch: 11/12/2022
Index Date Time (GOES-16) GOES-16 Lat,Lon NOAA-20 Lat,Lon Distance(km) Time Diff (sec)
1 11/12/2022 06:35:47 0.02, -75.19 0.67, -77.98 317.85 80
2 11/13/2022 06:17:02 0.02, -75.20 -0.38, -73.45 199.19 80
3 11/14/2022 18:38:58 -0.02, -75.21 -0.81, -78.75 403.42 80
4 11/15/2022 18:22:52 -0.02, -75.22 0.19, -74.21 114.13 80
5 11/17/2022 06:44:40 0.01, -75.23 0.96, -79.48 485.26 80
6 11/18/2022 06:23:14 0.01, -75.24 -0.04, -74.95 32.60 80
7 11/20/2022 18:26:24 -0.01, -75.27 -0.13, -75.71 50.56 80
8 11/21/2022 18:10:19 -0.01, -75.29 0.93, -71.19 467.94 80
9 11/23/2022 06:32:06 0.01, -75.31 0.27, -76.45 130.33 80
10 11/24/2022 06:10:40 0.01, -75.32 -0.73, -71.91 387.93 80
11 11/25/2022 18:32:36 -0.01, -75.34 -0.43, -77.21 213.26 80
